Simultaneous Nadir Overpasses (SNOs) Predictions

Prediction of SNOs between GOES-14 and NOAA-20 Satellite Orbit:

Table of predicted SNOs for the next 14.0 days since TLE Epoch: 1/7/2023
Index Date Time (GOES-14) GOES-14 Lat,Lon NOAA-20 Lat,Lon Distance(km) Time Diff (sec)
1 01/07/2023 20:10:55 0.06,-104.14 0.69,-101.27 327.62 80
2 01/09/2023 08:32:45 -0.06,-104.54 0.37,-106.56 229.44 80
3 01/10/2023 08:11:21 -0.06,-104.55 -0.63,-102.03 287.44 80
4 01/11/2023 20:33:16 0.06,-104.16 -0.65,-107.31 358.98 80
5 01/12/2023 20:17:11 0.06,-104.17 0.35,-102.78 158.37 80
6 01/14/2023 08:36:22 -0.06,-104.58 0.70,-108.07 397.71 80
7 01/15/2023 08:17:37 -0.06,-104.59 -0.30,-103.54 119.47 80
8 01/17/2023 20:20:48 0.05,-104.20 0.03,-104.29 10.36 80
9 01/20/2023 08:23:53 -0.04,-104.61 0.06,-105.05 50.23 80
